EW1107 Weather Reports


Display with metric or nautical units.
time (UTC)temp
F
wind
direction
speed
MPH
gust
MPH
rain 1hr
in
rain 24hr
in
rain mn
in
humidity
%
barometer
mb
20210728104533 86 205 1.0 13.0 0.00 0.00 0.00 51 1009.8
20210728103143 87 182 9.0 20.0 0.00 0.00 0.00 50 1009.8
20210728101606 87 208 0.0 20.0 0.00 0.00 0.00 49 1009.8
20210728100036 87 158 11.0 19.0 0.00 0.00 0.00 50 1009.9
20210728094602 86 251 9.0 16.0 0.00 0.00 0.00 52 1009.9
20210728093031 86 184 12.0 22.0 0.00 0.00 0.00 52 1010.1
20210728091537 85 181 4.0 19.0 0.00 0.00 0.00 53 1010.1
20210728090016 84 171 11.0 21.0 0.00 0.00 0.00 54 1010.2
20210728084546 84 140 8.0 18.0 0.00 0.00 0.00 54 1010.1
20210728083020 84 198 8.0 21.0 0.00 0.00 0.00 53 1010.1
20210728081542 84 160 10.0 20.0 0.00 0.00 0.00 53 1010.1
20210728080007 84 148 3.0 17.0 0.00 0.00 0.00 56 1010.3
20210728074502 82 149 6.0 17.0 0.00 0.00 0.00 62 1010.4
20210728073140 81 171 8.0 14.0 0.00 0.00 0.00 63 1010.7
20210728071619 79 188 3.0 15.0 0.00 0.00 0.00 64 1010.6
20210728070108 78 151 4.0 12.0 0.00 0.05 0.00 65 1010.6
20210728064606 77 150 10.0 19.0 0.00 0.05 0.00 63 1010.8
20210728063142 75 163 4.0 13.0 0.00 0.05 0.00 68 1010.8
20210728063134 75 148 4.0 13.0 0.00 0.05 0.00 68 1010.8
20210728061738 75 132 1.0 14.0 0.00 0.05 0.00 68 1010.8
20210728060048 74 148 8.0 16.0 0.00 0.35 0.00 68 1010.9
20210728054554 73 146 2.0 9.0 0.00 0.35 0.00 72 1010.9
20210728053043 71 109 2.0 7.0 0.00 0.35 0.00 75 1011.0
20210728051541 71 123 0.0 6.0 0.00 0.35 0.00 78 1011.1
20210728050030 70 198 0.0 0.0 0.00 0.80 0.00 77 1011.1
20210728044544 70 283 0.0 0.0 0.00 0.80 0.00 78 1011.2
20210728043123 68 283 0.0 0.0 0.00 0.80 0.00 83 1011.3
20210728041513 67 283 0.0 0.0 0.00 0.80 0.00 85 1011.3
20210728040025 66 283 0.0 0.0 0.00 0.80 0.00 86 1011.4
20210728034509 65 283 0.0 0.0 0.00 0.80 0.00 88 1011.4
20210728013056 64 284 0.0 0.0 0.00 0.80 0.00 90 1011.6
20210728011604 64 284 0.0 0.0 0.00 0.80 0.00 89 1011.9
20210728010050 65 284 0.0 0.0 0.00 0.80 0.00 89 1011.8
20210728004615 65 284 0.0 0.0 0.00 0.80 0.00 88 1011.8
20210727233148 66 284 0.0 0.0 0.00 0.80 0.00 88 1012.3
20210727231639 66 284 0.0 0.0 0.00 0.80 0.00 87 1012.5
20210727230138 67 284 0.0 0.0 0.00 0.80 0.00 86 1012.6
20210727224641 67 284 0.0 0.0 0.00 0.80 0.00 86 1012.7
20210727223203 67 284 0.0 0.0 0.00 0.80 0.00 87 1012.8
20210727221644 67 284 0.0 0.0 0.00 0.80 0.00 86 1012.8
20210727220127 67 284 0.0 0.0 0.00 0.80 0.80 86 1012.7
20210727214617 68 284 0.0 0.0 0.00 0.80 0.80 85 1012.5
20210727213243 68 284 0.0 0.0 0.00 0.80 0.80 84 1012.4
20210727211647 69 284 0.0 0.0 0.00 0.80 0.80 83 1012.4
20210727210117 69 284 0.0 0.0 0.00 0.80 0.80 83 1012.3
20210727204629 70 284 0.0 0.0 0.00 0.80 0.80 83 1012.1
20210727203158 70 284 0.0 0.0 0.00 0.80 0.80 83 1012.1
20210727201615 71 284 0.0 0.0 0.00 0.80 0.80 82 1012.0
20210727200150 71 284 0.0 0.0 0.00 0.80 0.80 82 1011.8
20210727194558 72 284 0.0 0.0 0.00 0.80 0.80 81 1011.8
20210727193114 73 284 0.0 0.0 0.00 0.80 0.80 79 1011.8
20210727191613 74 284 0.0 0.0 0.00 0.80 0.80 77 1011.8
20210727190146 75 284 0.0 0.0 0.00 0.80 0.80 74 1011.8
20210727184559 76 284 0.0 0.0 0.00 0.80 0.80 70 1011.7
20210727181522 79 284 0.0 0.0 0.00 0.80 0.80 62 1011.7
20210727180035 80 284 0.0 0.0 0.00 0.80 0.80 59 1011.5
20210727174546 81 284 0.0 0.0 0.00 0.80 0.80 56 1011.6
20210727170223 81 272 0.0 13.0 0.00 0.80 0.80 56 1011.5
20210727164648 82 284 0.0 9.0 0.00 0.80 0.80 54 1011.2
20210727163059 82 304 2.0 18.0 0.00 0.80 0.80 54 1011.2
20210727161601 83 291 6.0 23.0 0.00 0.80 0.80 52 1011.1
20210727160145 85 304 3.0 13.0 0.00 0.80 0.80 50 1011.0
20210727154608 84 296 5.0 21.0 0.00 0.80 0.80 50 1011.1
20210727153123 84 249 4.0 23.0 0.00 0.80 0.80 50 1011.2
20210727151636 85 284 10.0 27.0 0.00 0.80 0.80 49 1011.1
20210727150202 85 257 6.0 20.0 0.00 0.80 0.80 50 1011.1
20210727144622 86 208 3.0 13.0 0.00 0.80 0.80 48 1011.2
20210727143118 86 254 6.0 19.0 0.00 0.80 0.80 47 1011.2
20210727141611 84 271 9.0 22.0 0.00 0.80 0.80 49 1011.1
20210727140148 86 221 6.0 21.0 0.00 0.80 0.80 47 1011.2
20210727134606 85 281 9.0 25.0 0.00 0.80 0.80 48 1011.2
20210727133112 85 238 6.0 15.0 0.00 0.80 0.80 49 1011.3
20210727131637 84 250 8.0 17.0 0.00 0.80 0.80 51 1011.3
20210727130133 84 247 8.0 21.0 0.00 0.80 0.80 53 1011.4
20210727124558 84 245 11.0 19.0 0.00 0.80 0.80 52 1011.7
20210727123053 84 233 9.0 24.0 0.00 0.80 0.80 55 1011.8
20210727121611 83 292 5.0 24.0 0.00 0.80 0.80 54 1012.0
20210727120104 83 238 7.0 21.0 0.00 0.80 0.80 55 1012.1
20210727114715 81 262 6.0 19.0 0.00 0.80 0.80 57 1012.2
20210727113041 81 220 8.0 21.0 0.00 0.80 0.80 58 1012.2
20210727111551 81 232 6.0 22.0 0.00 0.80 0.80 61 1012.4
20210727110039 80 287 7.0 18.0 0.00 0.80 0.80 62 1012.4